{"data":{"norad_id":57955,"epoch":"2026-09-20T11:32:15.342432Z","epoch_age_seconds":139228,"freshness":"FRESH","line1":"1 57955U 23148W   26263.48073313  .00000172  00000+0  16227-4 0  9998","line2":"2 57955  53.1620 186.0257 0000905  87.2070 272.9036 15.34388052168437","mean_motion":15.34388052,"eccentricity":9.05e-5,"inclination_deg":53.162,"raan_deg":186.0257,"arg_perigee_deg":87.207,"mean_anomaly_deg":272.9036,"bstar":1.6227e-5,"rev_number":16843,"period_min":93.848488856716,"perigee_km":462.11965315588,"apogee_km":463.35785166706,"semimajor_km":6840.8757524115,"source":"CELESTRAK","updated_at":"2026-09-21T09:00:33.748294Z"}}